Time,TemperatureF,DewpointF,PressureIn,WindDirection,WindDirectionDegrees,WindSpeedMPH,WindSpeedGustMPH,Humidity,HourlyPrecipIn,Conditions,Clouds,dailyrainin,SolarRadiationWatts/m^2,SoftwareType,DateUTC
2013-03-07 00:02:00,43.0,43.0,-100.00,South,178,0.0,1.0,100,-99.99,,,0.29,0.000000,,2013-03-07 08:02:00,
2013-03-07 01:02:00,45.0,45.0,-100.00,South,191,0.0,0.0,100,-99.99,,,0.29,0.000000,,2013-03-07 09:02:00,
2013-03-07 02:02:00,43.0,43.0,-100.00,South,180,0.0,0.0,100,-99.99,,,0.29,0.000000,,2013-03-07 10:02:00,
2013-03-07 03:02:00,45.0,45.0,-100.00,South,187,0.0,2.0,100,-99.99,,,0.29,0.000000,,2013-03-07 11:02:00,
2013-03-07 05:02:00,45.0,45.0,-100.00,South,171,0.0,0.0,100,-99.99,,,0.29,0.000000,,2013-03-07 13:02:00,
2013-03-07 06:01:00,43.0,43.0,-100.00,South,174,0.0,1.0,100,-99.99,,,0.29,0.000000,,2013-03-07 14:01:00,
2013-03-07 07:02:00,43.0,43.0,-100.00,SSE,165,0.0,0.0,100,-99.99,,,0.29,0.000000,,2013-03-07 15:02:00,
2013-03-07 08:02:00,45.0,45.0,-100.00,SSE,156,0.0,0.0,100,-99.99,,,0.29,5.000000,,2013-03-07 16:02:00,
2013-03-07 09:02:00,45.0,45.0,-100.00,SSE,168,0.0,0.0,100,-99.99,,,0.28,24.000000,,2013-03-07 17:02:00,
2013-03-07 10:03:00,46.0,46.0,-100.00,South,188,0.0,1.0,100,-99.99,,,0.27,69.000000,,2013-03-07 18:03:00,
2013-03-07 11:02:00,47.0,47.0,-100.00,SSW,208,0.0,1.0,100,-99.99,,,0.26,139.000000,,2013-03-07 19:02:00,
2013-03-07 12:01:00,50.0,47.0,-100.00,SW,230,0.0,3.0,89,-99.99,,,0.32,216.000000,,2013-03-07 20:01:00,
2013-03-07 13:02:00,51.0,48.0,-100.00,SW,231,0.0,3.0,89,-99.99,,,0.38,292.000000,,2013-03-07 21:02:00,
2013-03-07 14:01:00,51.0,49.0,-100.00,SE,145,0.0,3.0,94,-99.99,,,0.39,192.000000,,2013-03-07 22:01:00,
2013-03-07 15:02:00,50.0,50.0,-100.00,SW,224,0.0,2.0,100,-99.99,,,0.36,144.000000,,2013-03-07 23:02:00,
2013-03-07 16:03:00,46.0,46.0,-100.00,South,186,0.0,4.0,100,-99.99,,,0.32,135.000000,,2013-03-08 00:03:00,
2013-03-07 16:12:00,46.0,46.0,-100.00,South,186,0.0,4.0,100,-99.99,,,0.32,135.000000,,2013-03-08 00:12:00,
2013-03-07 16:22:00,46.0,46.0,-100.00,South,186,0.0,4.0,100,-99.99,,,0.32,135.000000,,2013-03-08 00:22:00,
2013-03-07 16:33:00,46.0,46.0,-100.00,South,186,0.0,4.0,100,-99.99,,,0.32,135.000000,,2013-03-08 00:33:00,
2013-03-07 16:42:00,46.0,46.0,-100.00,South,186,0.0,4.0,100,-99.99,,,0.32,135.000000,,2013-03-08 00:42:00,
2013-03-07 17:01:00,49.0,49.0,-100.00,SSE,157,0.0,3.0,100,0.00,,,0.30,165.000000,,2013-03-08 01:01:00,
2013-03-07 17:11:00,49.0,49.0,-100.00,SSE,157,0.0,3.0,100,0.00,,,0.30,165.000000,,2013-03-08 01:11:00,
2013-03-07 17:21:00,49.0,49.0,-100.00,SSE,157,0.0,3.0,100,0.00,,,0.30,165.000000,,2013-03-08 01:21:00,
2013-03-07 17:32:00,49.0,49.0,-100.00,SSE,157,0.0,3.0,100,0.00,,,0.30,165.000000,,2013-03-08 01:32:00,
2013-03-07 18:01:00,46.0,46.0,-100.00,SSE,154,0.0,3.0,100,-99.99,,,0.28,26.000000,,2013-03-08 02:01:00,
2013-03-07 18:11:00,46.0,46.0,-100.00,SSE,154,0.0,3.0,100,-99.99,,,0.28,26.000000,,2013-03-08 02:11:00,
2013-03-07 18:21:00,46.0,46.0,-100.00,SSE,154,0.0,3.0,100,-99.99,,,0.28,26.000000,,2013-03-08 02:21:00,
2013-03-07 18:31:00,46.0,46.0,-100.00,SSE,154,0.0,3.0,100,-99.99,,,0.28,26.000000,,2013-03-08 02:31:00,
2013-03-07 19:02:00,44.0,44.0,-100.00,SSE,149,0.0,3.0,100,-99.99,,,0.28,1.000000,,2013-03-08 03:02:00,
2013-03-07 19:11:00,44.0,44.0,-100.00,SSE,149,0.0,3.0,100,-99.99,,,0.28,1.000000,,2013-03-08 03:11:00,
2013-03-07 19:22:00,44.0,44.0,-100.00,SSE,149,0.0,3.0,100,-99.99,,,0.28,1.000000,,2013-03-08 03:22:00,
2013-03-07 19:32:00,44.0,44.0,-100.00,SSE,149,0.0,3.0,100,-99.99,,,0.28,1.000000,,2013-03-08 03:32:00,
2013-03-07 20:01:00,42.0,42.0,-100.00,SSE,147,0.0,2.0,100,-99.99,,,0.27,0.000000,,2013-03-08 04:01:00,
2013-03-07 20:11:00,42.0,42.0,-100.00,SSE,147,0.0,2.0,100,-99.99,,,0.27,0.000000,,2013-03-08 04:11:00,
2013-03-07 20:21:00,42.0,42.0,-100.00,SSE,147,0.0,2.0,100,-99.99,,,0.27,0.000000,,2013-03-08 04:21:00,
2013-03-07 20:31:00,42.0,42.0,-100.00,SSE,147,0.0,2.0,100,-99.99,,,0.27,0.000000,,2013-03-08 04:31:00,
2013-03-07 21:01:00,42.0,42.0,-100.00,SSE,155,0.0,1.0,100,-99.99,,,0.26,0.000000,,2013-03-08 05:01:00,
2013-03-07 21:12:00,42.0,42.0,-100.00,SSE,155,0.0,1.0,100,-99.99,,,0.26,0.000000,,2013-03-08 05:12:00,
2013-03-07 21:22:00,42.0,42.0,-100.00,SSE,155,0.0,1.0,100,-99.99,,,0.26,0.000000,,2013-03-08 05:22:00,
2013-03-07 21:32:00,42.0,42.0,-100.00,SSE,155,0.0,1.0,100,-99.99,,,0.26,0.000000,,2013-03-08 05:32:00,
2013-03-07 22:01:00,42.0,42.0,-100.00,SSE,150,0.0,2.0,100,-99.99,,,0.26,0.000000,,2013-03-08 06:01:00,
2013-03-07 23:01:00,42.0,42.0,-100.00,SE,140,0.0,1.0,100,-99.99,,,0.25,0.000000,,2013-03-08 07:01:00,